Time,TemperatureF,DewpointF,PressureIn,WindDirection,WindDirectionDegrees,WindSpeedMPH,WindSpeedGustMPH,Humidity,HourlyPrecipIn,Conditions,Clouds,dailyrainin,SoftwareType,DateUTC
2013-09-23 00:14:00,48.3,43.0,30.02,North,5,0.0,-999.0,83,-99.99,,,0.00,weatherlink.com 1.10,2013-09-23 04:14:00,
2013-09-23 00:29:00,48.3,43.0,30.02,North,5,0.0,-999.0,83,-99.99,,,0.00,weatherlink.com 1.10,2013-09-23 04:29:00,
2013-09-23 00:44:00,48.2,43.0,30.02,North,5,0.0,-999.0,83,-99.99,,,0.00,weatherlink.com 1.10,2013-09-23 04:44:00,
2013-09-23 00:59:00,48.2,43.0,30.02,North,360,0.0,-999.0,83,-99.99,,,0.00,weatherlink.com 1.10,2013-09-23 04:59:00,
2013-09-23 01:14:00,48.1,44.0,30.03,NNW,343,0.0,-999.0,84,-99.99,,,0.00,weatherlink.com 1.10,2013-09-23 05:14:00,
2013-09-23 01:29:00,48.1,44.0,30.03,NNW,343,0.0,-999.0,84,-99.99,,,0.00,weatherlink.com 1.10,2013-09-23 05:29:00,
2013-09-23 01:44:00,48.1,44.0,30.03,NNW,343,0.0,-999.0,84,-99.99,,,0.00,weatherlink.com 1.10,2013-09-23 05:44:00,
2013-09-23 01:59:00,48.1,44.0,30.04,NNW,343,0.0,-999.0,84,-99.99,,,0.00,weatherlink.com 1.10,2013-09-23 05:59:00,
2013-09-23 02:14:00,48.1,44.0,30.04,NNW,342,0.0,-999.0,85,-99.99,,,0.00,weatherlink.com 1.10,2013-09-23 06:14:00,
2013-09-23 02:29:00,48.1,44.0,30.04,NNW,338,0.0,-999.0,86,-99.99,,,0.00,weatherlink.com 1.10,2013-09-23 06:29:00,
2013-09-23 02:44:00,48.1,44.0,30.04,NNW,338,0.0,-999.0,86,-99.99,,,0.00,weatherlink.com 1.10,2013-09-23 06:44:00,
2013-09-23 02:59:00,48.1,44.0,30.04,North,5,0.0,-999.0,86,-99.99,,,0.00,weatherlink.com 1.10,2013-09-23 06:59:00,
2013-09-23 03:14:00,48.1,44.0,30.04,North,360,0.0,-999.0,86,-99.99,,,0.00,weatherlink.com 1.10,2013-09-23 07:14:00,
2013-09-23 03:29:00,48.1,44.0,30.04,North,360,0.0,-999.0,86,-99.99,,,0.00,weatherlink.com 1.10,2013-09-23 07:29:00,
2013-09-23 03:44:00,48.1,44.0,30.05,NNE,13,0.0,-999.0,87,-99.99,,,0.00,weatherlink.com 1.10,2013-09-23 07:44:00,
2013-09-23 03:59:00,48.1,44.0,30.05,NNE,13,0.0,-999.0,87,-99.99,,,0.00,weatherlink.com 1.10,2013-09-23 07:59:00,
2013-09-23 04:14:00,48.0,44.0,30.05,North,360,0.0,-999.0,87,-99.99,,,0.00,weatherlink.com 1.10,2013-09-23 08:14:00,
2013-09-23 04:29:00,48.0,44.0,30.06,North,355,0.0,-999.0,86,-99.99,,,0.00,weatherlink.com 1.10,2013-09-23 08:29:00,
2013-09-23 04:44:00,48.0,44.0,30.06,North,355,0.0,-999.0,87,-99.99,,,0.00,weatherlink.com 1.10,2013-09-23 08:44:00,
2013-09-23 04:59:00,47.9,44.0,30.06,North,360,0.0,-999.0,86,-99.99,,,0.00,weatherlink.com 1.10,2013-09-23 08:59:00,
2013-09-23 05:14:00,47.9,44.0,30.06,NW,323,3.0,-999.0,87,-99.99,,,0.00,weatherlink.com 1.10,2013-09-23 09:14:00,
2013-09-23 05:29:00,47.8,44.0,30.07,North,360,0.0,-999.0,87,-99.99,,,0.00,weatherlink.com 1.10,2013-09-23 09:29:00,
2013-09-23 05:44:00,47.7,44.0,30.07,NNW,331,0.0,-999.0,87,-99.99,,,0.00,weatherlink.com 1.10,2013-09-23 09:44:00,
2013-09-23 05:59:00,47.7,44.0,30.07,NNW,338,0.0,-999.0,87,-99.99,,,0.00,weatherlink.com 1.10,2013-09-23 09:59:00,
2013-09-23 06:14:00,47.5,44.0,30.08,North,360,0.0,-999.0,87,-99.99,,,0.00,weatherlink.com 1.10,2013-09-23 10:14:00,
2013-09-23 06:29:00,47.2,44.0,30.08,North,355,0.0,-999.0,87,-99.99,,,0.00,weatherlink.com 1.10,2013-09-23 10:29:00,
2013-09-23 06:44:00,46.7,43.0,30.09,North,355,0.0,-999.0,87,-99.99,,,0.00,weatherlink.com 1.10,2013-09-23 10:44:00,
2013-09-23 06:59:00,46.1,43.0,30.09,North,355,0.0,-999.0,87,-99.99,,,0.00,weatherlink.com 1.10,2013-09-23 10:59:00,
2013-09-23 07:14:00,45.4,42.0,30.10,North,355,0.0,-999.0,88,-99.99,,,0.00,weatherlink.com 1.10,2013-09-23 11:14:00,
2013-09-23 07:29:00,44.8,42.0,30.10,North,355,0.0,-999.0,88,-99.99,,,0.00,weatherlink.com 1.10,2013-09-23 11:29:00,
2013-09-23 07:44:00,44.3,41.0,30.10,North,355,0.0,-999.0,89,-99.99,,,0.00,weatherlink.com 1.10,2013-09-23 11:44:00,
2013-09-23 07:59:00,44.1,41.0,30.11,North,355,0.0,-999.0,90,-99.99,,,0.00,weatherlink.com 1.10,2013-09-23 11:59:00,
2013-09-23 08:14:00,44.2,42.0,30.11,North,355,0.0,-999.0,90,-99.99,,,0.00,weatherlink.com 1.10,2013-09-23 12:14:00,
2013-09-23 08:29:00,45.0,42.0,30.11,NNW,331,0.0,-999.0,90,-99.99,,,0.00,weatherlink.com 1.10,2013-09-23 12:29:00,
2013-09-23 08:44:00,46.3,43.0,30.12,North,360,2.0,-999.0,87,-99.99,,,0.00,weatherlink.com 1.10,2013-09-23 12:44:00,
2013-09-23 08:59:00,47.6,43.0,30.12,North,350,0.0,-999.0,84,-99.99,,,0.00,weatherlink.com 1.10,2013-09-23 12:59:00,
2013-09-23 09:14:00,49.1,43.0,30.13,NNE,22,0.0,-999.0,80,-99.99,,,0.00,weatherlink.com 1.10,2013-09-23 13:14:00,
2013-09-23 09:29:00,49.7,42.0,30.13,NNW,331,4.0,-999.0,76,-99.99,,,0.00,weatherlink.com 1.10,2013-09-23 13:29:00,
2013-09-23 09:44:00,50.7,43.0,30.13,NE,47,0.0,-999.0,76,-99.99,,,0.00,weatherlink.com 1.10,2013-09-23 13:44:00,
2013-09-23 09:59:00,51.1,43.0,30.14,NNW,334,1.0,-999.0,74,-99.99,,,0.00,weatherlink.com 1.10,2013-09-23 13:59:00,
2013-09-23 10:14:00,51.2,42.0,30.14,NE,42,0.0,-999.0,72,-99.99,,,0.00,weatherlink.com 1.10,2013-09-23 14:14:00,
2013-09-23 10:29:00,50.9,42.0,30.14,WNW,301,6.0,-999.0,71,-99.99,,,0.00,weatherlink.com 1.10,2013-09-23 14:29:00,
2013-09-23 10:44:00,50.8,42.0,30.13,NNW,331,0.0,-999.0,71,-99.99,,,0.00,weatherlink.com 1.10,2013-09-23 14:44:00,
2013-09-23 10:59:00,51.6,42.0,30.14,NE,45,4.0,-999.0,70,-99.99,,,0.00,weatherlink.com 1.10,2013-09-23 14:59:00,
2013-09-23 11:14:00,51.7,42.0,30.14,North,9,3.0,-999.0,69,-99.99,,,0.00,weatherlink.com 1.10,2013-09-23 15:14:00,
2013-09-23 11:29:00,52.2,42.0,30.15,NNW,333,1.0,-999.0,68,-99.99,,,0.00,weatherlink.com 1.10,2013-09-23 15:29:00,
2013-09-23 11:44:00,52.6,41.0,30.15,NE,35,1.0,-999.0,66,-99.99,,,0.00,weatherlink.com 1.10,2013-09-23 15:44:00,
2013-09-23 11:59:00,53.4,42.0,30.15,NNW,339,0.0,-999.0,66,-99.99,,,0.00,weatherlink.com 1.10,2013-09-23 15:59:00,
2013-09-23 12:14:00,53.4,42.0,30.14,NNW,348,1.0,-999.0,66,-99.99,,,0.00,weatherlink.com 1.10,2013-09-23 16:14:00,
2013-09-23 12:29:00,53.6,42.0,30.14,NW,313,2.0,-999.0,65,-99.99,,,0.00,weatherlink.com 1.10,2013-09-23 16:29:00,
2013-09-23 12:44:00,53.7,43.0,30.14,NNE,17,1.0,-999.0,67,-99.99,,,0.00,weatherlink.com 1.10,2013-09-23 16:44:00,
2013-09-23 12:59:00,54.2,43.0,30.14,WSW,242,2.0,-999.0,66,-99.99,,,0.00,weatherlink.com 1.10,2013-09-23 16:59:00,
2013-09-23 13:15:00,54.2,42.0,30.14,WNW,302,2.0,-999.0,64,-99.99,,,0.00,weatherlink.com 1.10,2013-09-23 17:15:00,
2013-09-23 13:29:00,55.1,43.0,30.13,NNE,22,2.0,-999.0,64,-99.99,,,0.00,weatherlink.com 1.10,2013-09-23 17:29:00,
2013-09-23 13:44:00,56.2,44.0,30.12,North,9,0.0,-999.0,63,-99.99,,,0.00,weatherlink.com 1.10,2013-09-23 17:44:00,
2013-09-23 13:59:00,57.6,43.0,30.12,NW,311,1.0,-999.0,59,-99.99,,,0.00,weatherlink.com 1.10,2013-09-23 17:59:00,
2013-09-23 14:14:00,57.5,44.0,30.12,West,270,0.0,-999.0,61,-99.99,,,0.00,weatherlink.com 1.10,2013-09-23 18:14:00,
2013-09-23 14:29:00,59.0,44.0,30.12,WNW,284,1.0,-999.0,57,-99.99,,,0.00,weatherlink.com 1.10,2013-09-23 18:29:00,
2013-09-23 14:44:00,60.4,44.0,30.12,NE,40,3.0,-999.0,55,-99.99,,,0.00,weatherlink.com 1.10,2013-09-23 18:44:00,
2013-09-23 14:59:00,60.4,44.0,30.11,SSW,208,0.0,-999.0,56,-99.99,,,0.00,weatherlink.com 1.10,2013-09-23 18:59:00,
2013-09-23 15:14:00,60.5,44.0,30.11,WNW,288,0.0,-999.0,55,-99.99,,,0.00,weatherlink.com 1.10,2013-09-23 19:14:00,
2013-09-23 15:29:00,61.2,45.0,30.11,NNW,338,1.0,-999.0,56,-99.99,,,0.00,weatherlink.com 1.10,2013-09-23 19:29:00,
2013-09-23 15:44:00,60.9,45.0,30.10,North,9,0.0,-999.0,56,-99.99,,,0.00,weatherlink.com 1.10,2013-09-23 19:44:00,
2013-09-23 15:59:00,60.3,46.0,30.11,NNW,333,1.0,-999.0,59,-99.99,,,0.00,weatherlink.com 1.10,2013-09-23 19:59:00,
2013-09-23 16:14:00,60.1,46.0,30.10,NE,51,0.0,-999.0,60,-99.99,,,0.00,weatherlink.com 1.10,2013-09-23 20:14:00,
2013-09-23 16:29:00,60.0,44.0,30.10,NNW,329,2.0,-999.0,57,-99.99,,,0.00,weatherlink.com 1.10,2013-09-23 20:29:00,
2013-09-23 16:44:00,59.0,44.0,30.10,NE,34,0.0,-999.0,59,-99.99,,,0.00,weatherlink.com 1.10,2013-09-23 20:44:00,
2013-09-23 16:59:00,59.0,44.0,30.11,North,360,3.0,-999.0,57,-99.99,,,0.00,weatherlink.com 1.10,2013-09-23 20:59:00,
2013-09-23 17:14:00,59.0,44.0,30.11,SSE,160,0.0,-999.0,58,-99.99,,,0.00,weatherlink.com 1.10,2013-09-23 21:14:00,
2013-09-23 17:29:00,57.7,44.0,30.11,NNW,330,0.0,-999.0,60,-99.99,,,0.00,weatherlink.com 1.10,2013-09-23 21:29:00,
2013-09-23 17:44:00,56.8,44.0,30.12,North,11,3.0,-999.0,63,-99.99,,,0.00,weatherlink.com 1.10,2013-09-23 21:44:00,
2013-09-23 17:59:00,56.1,44.0,30.12,North,350,0.0,-999.0,64,-99.99,,,0.00,weatherlink.com 1.10,2013-09-23 21:59:00,
2013-09-23 18:14:00,55.4,43.0,30.12,NNE,12,0.0,-999.0,64,-99.99,,,0.00,weatherlink.com 1.10,2013-09-23 22:14:00,
2013-09-23 18:29:00,54.8,44.0,30.12,NNW,346,0.0,-999.0,66,-99.99,,,0.00,weatherlink.com 1.10,2013-09-23 22:29:00,
2013-09-23 18:44:00,54.2,43.0,30.12,North,5,0.0,-999.0,67,-99.99,,,0.00,weatherlink.com 1.10,2013-09-23 22:44:00,
2013-09-23 18:59:00,53.5,44.0,30.12,North,11,0.0,-999.0,69,-99.99,,,0.00,weatherlink.com 1.10,2013-09-23 22:59:00,
2013-09-23 19:14:00,52.7,44.0,30.12,North,10,0.0,-999.0,71,-99.99,,,0.00,weatherlink.com 1.10,2013-09-23 23:14:00,
2013-09-23 19:29:00,51.8,43.0,30.12,North,11,0.0,-999.0,72,-99.99,,,0.00,weatherlink.com 1.10,2013-09-23 23:29:00,
2013-09-23 19:44:00,50.7,43.0,30.12,North,10,0.0,-999.0,75,-99.99,,,0.00,weatherlink.com 1.10,2013-09-23 23:44:00,
2013-09-23 19:59:00,49.5,43.0,30.12,North,10,0.0,-999.0,77,-99.99,,,0.00,weatherlink.com 1.10,2013-09-23 23:59:00,
2013-09-23 20:14:00,48.3,42.0,30.12,North,11,0.0,-999.0,80,-99.99,,,0.00,weatherlink.com 1.10,2013-09-24 00:14:00,
2013-09-23 20:29:00,47.2,42.0,30.12,North,11,0.0,-999.0,82,-99.99,,,0.00,weatherlink.com 1.10,2013-09-24 00:29:00,
2013-09-23 20:44:00,46.6,42.0,30.12,North,11,0.0,-999.0,84,-99.99,,,0.00,weatherlink.com 1.10,2013-09-24 00:44:00,
2013-09-23 20:59:00,46.0,42.0,30.12,North,11,0.0,-999.0,85,-99.99,,,0.00,weatherlink.com 1.10,2013-09-24 00:59:00,
2013-09-23 21:14:00,45.5,42.0,30.12,North,10,0.0,-999.0,86,-99.99,,,0.00,weatherlink.com 1.10,2013-09-24 01:14:00,
2013-09-23 21:29:00,45.0,41.0,30.12,North,10,0.0,-999.0,86,-99.99,,,0.00,weatherlink.com 1.10,2013-09-24 01:29:00,
2013-09-23 21:44:00,44.6,41.0,30.12,North,11,0.0,-999.0,87,-99.99,,,0.00,weatherlink.com 1.10,2013-09-24 01:44:00,
2013-09-23 21:59:00,44.2,41.0,30.12,North,11,0.0,-999.0,88,-99.99,,,0.00,weatherlink.com 1.10,2013-09-24 01:59:00,
2013-09-23 22:14:00,43.8,41.0,30.12,North,11,0.0,-999.0,89,-99.99,,,0.00,weatherlink.com 1.10,2013-09-24 02:14:00,
2013-09-23 22:29:00,43.5,41.0,30.12,North,10,0.0,-999.0,90,-99.99,,,0.00,weatherlink.com 1.10,2013-09-24 02:29:00,
2013-09-23 22:44:00,43.2,41.0,30.12,North,10,0.0,-999.0,90,-99.99,,,0.00,weatherlink.com 1.10,2013-09-24 02:44:00,
2013-09-23 22:59:00,42.9,40.0,30.13,North,11,0.0,-999.0,90,-99.99,,,0.00,weatherlink.com 1.10,2013-09-24 02:59:00,
2013-09-23 23:14:00,42.7,40.0,30.13,North,11,0.0,-999.0,91,-99.99,,,0.00,weatherlink.com 1.10,2013-09-24 03:14:00,
2013-09-23 23:29:00,42.5,40.0,30.13,North,11,0.0,-999.0,91,-99.99,,,0.00,weatherlink.com 1.10,2013-09-24 03:29:00,
2013-09-23 23:44:00,42.3,40.0,30.13,North,10,0.0,-999.0,91,-99.99,,,0.00,weatherlink.com 1.10,2013-09-24 03:44:00,
2013-09-23 23:59:00,42.2,40.0,30.13,North,10,0.0,-999.0,91,-99.99,,,0.00,weatherlink.com 1.10,2013-09-24 03:59:00,